• In Belarus
  • List of Countries
  • For 7 days
  • Water Temperature
  • Satellite Maps
  • Weather Map
  • Weather Widgets
  • user-avatar
    Login

    Hourly Weather Cottbus

    Today, 22 April, Monday

    Time Temperature Precipitation Wind Pressure Humidity
    00:00 +10°C° 0 mm 2 mps 758 mmHg 61%
    01:00 +9°C° 0 mm 2 mps 758 mmHg 62%
    02:00 +9°C° 0 mm 2 mps 757 mmHg 63%
    03:00 +8°C° 0 mm 2 mps 757 mmHg 64%
    04:00 +7°C° 0 mm 3 mps 757 mmHg 65%
    05:00 +8°C° 0 mm 3 mps 757 mmHg 66%
    06:00 +8°C° 0 mm 4 mps 757 mmHg 67%
    07:00 +8°C° 0 mm 5 mps 757 mmHg 68%
    08:00 +10°C° 0 mm 5 mps 757 mmHg 60%
    09:00 +13°C° 0 mm 5 mps 757 mmHg 52%
    10:00 +14°C° 0 mm 6 mps 757 mmHg 44%
    11:00 +15°C° 0 mm 6 mps 757 mmHg 44%
    12:00 +16°C° 0 mm 6 mps 756 mmHg 43%
    13:00 +17°C° 0 mm 7 mps 756 mmHg 43%
    14:00 +16°C° 0 mm 7 mps 756 mmHg 43%
    15:00 +16°C° 0 mm 7 mps 755 mmHg 43%
    16:00 +16°C° 0 mm 7 mps 755 mmHg 43%
    17:00 +15°C° 0 mm 6 mps 755 mmHg 48%
    18:00 +13°C° 0 mm 5 mps 755 mmHg 53%
    19:00 +12°C° 0 mm 4 mps 754 mmHg 59%
    20:00 +12°C° 0 mm 4 mps 754 mmHg 60%
    21:00 +12°C° 0 mm 5 mps 754 mmHg 62%
    22:00 +12°C° 0 mm 5 mps 754 mmHg 63%
    23:00 +11°C° 0 mm 6 mps 754 mmHg 63%

    Tomorrow, 23 April, Tuesday

    Time Temperature Precipitation Wind Pressure Humidity
    00:00 +10°C° 0 mm 6 mps 754 mmHg 62%
    01:00 +10°C° 0 mm 6 mps 754 mmHg 62%
    02:00 +9°C° 0 mm 6 mps 753 mmHg 62%
    03:00 +9°C° 0 mm 6 mps 753 mmHg 62%
    04:00 +8°C° 0 mm 6 mps 752 mmHg 62%
    05:00 +9°C° 0 mm 7 mps 752 mmHg 62%
    06:00 +9°C° 0 mm 7 mps 752 mmHg 63%
    07:00 +10°C° 0 mm 7 mps 752 mmHg 63%
    08:00 +11°C° 0 mm 7 mps 752 mmHg 61%
    09:00 +13°C° 0 mm 8 mps 752 mmHg 59%
    10:00 +16°C° 0 mm 8 mps 751 mmHg 56%
    11:00 +16°C° 0 mm 8 mps 751 mmHg 57%
    12:00 +17°C° 0 mm 8 mps 751 mmHg 57%
    13:00 +17°C° 0 mm 8 mps 750 mmHg 57%
    14:00 +16°C° 0.3 mm 7 mps 750 mmHg 63%
    15:00 +15°C° 0.3 mm 6 mps 750 mmHg 69%
    16:00 +14°C° 0.3 mm 5 mps 749 mmHg 75%
    17:00 +14°C° 0.2 mm 5 mps 749 mmHg 75%
    18:00 +13°C° 0.2 mm 5 mps 749 mmHg 75%
    19:00 +13°C° 0.2 mm 5 mps 749 mmHg 75%
    20:00 +12°C° 0 mm 5 mps 749 mmHg 75%
    21:00 +12°C° 0 mm 5 mps 749 mmHg 75%
    22:00 +10°C° 0 mm 5 mps 749 mmHg 75%
    23:00 +10°C° 0 mm 5 mps 749 mmHg 75%

    Day after tomorrow, 24 April, Wednesday

    Time Temperature Precipitation Wind Pressure Humidity
    00:00 +12°C° 0 mm 5 mps 749 mmHg 74%
    01:00 +12°C° 0 mm 5 mps 749 mmHg 74%
    02:00 +10°C° 0 mm 5 mps 749 mmHg 76%
    03:00 +10°C° 0 mm 5 mps 749 mmHg 79%
    04:00 +10°C° 0 mm 5 mps 748 mmHg 82%
    05:00 +12°C° 0 mm 5 mps 749 mmHg 79%
    06:00 +12°C° 0 mm 5 mps 749 mmHg 76%
    07:00 +13°C° 0 mm 5 mps 749 mmHg 73%
    08:00 +15°C° 0 mm 5 mps 749 mmHg 68%
    09:00 +17°C° 0 mm 5 mps 750 mmHg 63%
    10:00 +20°C° 0 mm 5 mps 750 mmHg 58%
    11:00 +21°C° 0 mm 5 mps 750 mmHg 55%
    12:00 +22°C° 0 mm 4 mps 750 mmHg 52%
    13:00 +23°C° 0 mm 4 mps 750 mmHg 49%
    14:00 +23°C° 0 mm 4 mps 750 mmHg 49%
    15:00 +25°C° 0 mm 4 mps 750 mmHg 49%
    16:00 +25°C° 0 mm 4 mps 750 mmHg 49%
    17:00 +22°C° 0 mm 3 mps 750 mmHg 56%
    18:00 +21°C° 0 mm 3 mps 750 mmHg 62%
    19:00 +19°C° 0 mm 2 mps 750 mmHg 69%
    20:00 +18°C° 0 mm 2 mps 750 mmHg 74%
    21:00 +17°C° 0 mm 2 mps 750 mmHg 79%
    22:00 +15°C° 0 mm 2 mps 750 mmHg 84%
    23:00 +14°C° 0 mm 3 mps 750 mmHg 86%

    25 April, Thursday

    Time Temperature Precipitation Wind Pressure Humidity
    00:00 +13°C° 0 mm 3 mps 751 mmHg 89%
    01:00 +13°C° 0 mm 3 mps 751 mmHg 91%
    02:00 +13°C° 0 mm 3 mps 751 mmHg 92%
    03:00 +13°C° 0 mm 3 mps 751 mmHg 92%
    04:00 +13°C° 0 mm 3 mps 752 mmHg 93%
    05:00 +13°C° 0.1 mm 3 mps 752 mmHg 90%
    06:00 +13°C° 0.1 mm 3 mps 753 mmHg 87%
    07:00 +14°C° 0.1 mm 4 mps 753 mmHg 84%
    08:00 +16°C° 0 mm 3 mps 753 mmHg 76%
    09:00 +18°C° 0 mm 3 mps 753 mmHg 67%
    10:00 +20°C° 0 mm 2 mps 754 mmHg 59%
    11:00 +23°C° 0 mm 2 mps 754 mmHg 52%
    12:00 +24°C° 0 mm 2 mps 754 mmHg 45%
    13:00 +26°C° 0 mm 1 mps 754 mmHg 38%
    14:00 +26°C° 0 mm 1 mps 753 mmHg 37%
    15:00 +26°C° 0 mm 1 mps 753 mmHg 35%
    16:00 +24°C° 0 mm 0 mps 753 mmHg 33%
    17:00 +25°C° 0 mm 1 mps 753 mmHg 39%
    18:00 +23°C° 0 mm 2 mps 753 mmHg 45%
    19:00 +20°C° 0 mm 2 mps 753 mmHg 51%
    20:00 +19°C° 0 mm 2 mps 753 mmHg 55%
    21:00 +18°C° 0 mm 2 mps 753 mmHg 59%
    22:00 +16°C° 0 mm 2 mps 753 mmHg 63%
    23:00 +16°C° 0 mm 2 mps 753 mmHg 70%

    26 April, Friday

    Time Temperature Precipitation Wind Pressure Humidity
    00:00 +16°C° 0 mm 2 mps 752 mmHg 77%
    01:00 +15°C° 0 mm 2 mps 752 mmHg 84%
    02:00 +15°C° 0 mm 2 mps 752 mmHg 86%
    03:00 +15°C° 0 mm 2 mps 751 mmHg 89%
    04:00 +15°C° 0 mm 1 mps 751 mmHg 91%
    05:00 +16°C° 0 mm 2 mps 751 mmHg 87%
    06:00 +16°C° 0 mm 2 mps 750 mmHg 83%
    07:00 +17°C° 0 mm 2 mps 750 mmHg 79%
    08:00 +19°C° 0 mm 2 mps 750 mmHg 72%
    09:00 +22°C° 0 mm 1 mps 750 mmHg 65%
    10:00 +24°C° 0 mm 1 mps 750 mmHg 58%
    11:00 +24°C° 0.3 mm 2 mps 750 mmHg 59%
    12:00 +24°C° 0.3 mm 3 mps 749 mmHg 60%
    13:00 +23°C° 0.3 mm 4 mps 749 mmHg 61%
    14:00 +21°C° 0.7 mm 5 mps 750 mmHg 69%
    15:00 +19°C° 0.7 mm 6 mps 750 mmHg 77%
    16:00 +16°C° 0.7 mm 7 mps 750 mmHg 86%
    17:00 +14°C° 0.2 mm 7 mps 751 mmHg 86%
    18:00 +11°C° 0.2 mm 7 mps 752 mmHg 87%
    19:00 +9°C° 0.2 mm 8 mps 753 mmHg 88%
    20:00 +9°C° 0.2 mm 8 mps 753 mmHg 87%
    21:00 +9°C° 0.2 mm 7 mps 754 mmHg 86%
    22:00 +9°C° 0.2 mm 7 mps 755 mmHg 86%
    23:00 +9°C° 0.2 mm 7 mps 755 mmHg 86%

    27 April, Saturday

    Time Temperature Precipitation Wind Pressure Humidity
    00:00 +9°C° 0.2 mm 6 mps 755 mmHg 85%
    01:00 +9°C° 0.2 mm 5 mps 755 mmHg 85%
    02:00 +9°C° 0.2 mm 5 mps 756 mmHg 86%
    03:00 +10°C° 0.2 mm 4 mps 756 mmHg 88%
    04:00 +10°C° 0.2 mm 4 mps 757 mmHg 89%
    05:00 +10°C° 0 mm 4 mps 757 mmHg 87%
    06:00 +9°C° 0 mm 5 mps 757 mmHg 85%
    07:00 +9°C° 0 mm 5 mps 758 mmHg 83%
    08:00 +12°C° 0 mm 5 mps 758 mmHg 76%
    09:00 +14°C° 0 mm 4 mps 758 mmHg 68%
    10:00 +15°C° 0 mm 4 mps 758 mmHg 60%
    11:00 +16°C° 0 mm 5 mps 758 mmHg 55%
    12:00 +17°C° 0 mm 5 mps 758 mmHg 51%
    13:00 +19°C° 0 mm 5 mps 758 mmHg 47%
    14:00 +19°C° 0 mm 5 mps 757 mmHg 48%
    15:00 +17°C° 0 mm 5 mps 757 mmHg 49%
    16:00 +17°C° 0 mm 5 mps 757 mmHg 51%
    17:00 +17°C° 0.1 mm 4 mps 757 mmHg 61%
    18:00 +14°C° 0.1 mm 3 mps 757 mmHg 71%
    19:00 +13°C° 0.1 mm 2 mps 757 mmHg 81%
    20:00 +12°C° 0 mm 3 mps 758 mmHg 83%
    21:00 +11°C° 0 mm 3 mps 758 mmHg 85%
    22:00 +10°C° 0 mm 3 mps 758 mmHg 86%
    23:00 +10°C° 0 mm 3 mps 759 mmHg 88%
    Show more